www.pogodaiklimat.ru

АРХИВ ПОГОДЫ в Хантингтоне

Время (UTC), дата Ветер
(напр.,м/с)
 
Видим.   Явления Облачность Т
(С)
Тd
(С)
f
(%)
Тe
(С)
Тes
(С)
Комфортность

P
(гПа)

Po
(гПа)
Тmin
(С)
Tmax
(С)
R
(мм)
SD
(см)
22:51 21.07 штиль  16 км    5/5 1800 м  +23.0  +18.0  73  +28  +30  душно  1007.0  977.9  +22.8    0.5   
23:51 21.07 штиль  16 км    ясно  +21.1  +18.9  87  +25  +26  комфорт  1006.8  977.6         
00:51 22.07 ЮЗ  16 км  слабый дождь  8/8 780 м  +20.6  +17.8  84  +24  +24  комфорт    977.9         
01:51 22.07 Ю  16 км  слабый дождь  2/0 3600 м
[средняя] 
+19.0  +18.0  94  +21  +21  комфорт  1007.1  977.9         
02:51 22.07 Ю  16 км  слабый дождь  8/2 1950 м
[средняя] 
+19.4  +17.8  90  +22  +22  комфорт  1006.6  977.6         
03:51 22.07 штиль  16 км    10/0 2100 м
[средняя] 
+19.0  +18.0  94  +21  +21  комфорт  1006.3  977.3         
04:51 22.07 Ю  16 км    10/8 1110 м
[средняя] 
+19.0  +18.0  94  +21  +21  комфорт  1005.8  976.9  +18.9  +22.8     
05:51 22.07 ЮВ  16 км    10/10 180 м  +19.4  +18.3  93  +22  +22  комфорт  1005.0  975.9         
06:18 22.07 Ю  16 км    10/10 180 м  +19.0  +18.0  94  +21  +21  комфорт    975.6         
06:51 22.07 Ю  16 км    10/10 150 м  +20.0  +18.0  88  +24  +24  комфорт  1004.1  975.3         
07:51 22.07 Ю  16 км  слабый дождь  10/10 210 м  +20.0  +18.3  90  +24  +24  комфорт  1004.3  975.3         
08:33 22.07 ЮВ  3 км  сильный дождь, дымка  10/10 240 м  +20.0  +18.3  90  +24  +24  комфорт    975.3         
08:38 22.07 Ю  5 км  слабый дождь, дымка  10/10 240 м  +20.0  +18.0  88  +24  +24  комфорт    975.3         
08:51 22.07 Ю  6 км  дождь, дымка  10/10 240 м  +20.0  +18.9  93  +24  +24  комфорт  1004.2  975.3         
09:47 22.07 Ю  16 км  слабый дождь  10/10 180 м  +20.0  +19.0  94  +24  +24  комфорт    975.3         
09:51 22.07 ЮЗ  14 км  слабый дождь  10/10 180 м  +20.0  +18.9  93  +24  +24  комфорт  1004.5  975.6         
10:08 22.07 Ю  16 км    10/10 180 м  +20.0  +19.0  94  +23  +23  комфорт    975.6         
10:51 22.07 Ю  16 км    10/10 180 м  +20.0  +18.9  93  +24  +24  комфорт  1004.6  975.6  +19.4  +20.0  2.3   
11:51 22.07 Ю  16 км    10/10 300 м  +21.0  +19.0  88  +26  +26  душно  1004.9  975.9         
12:02 22.07 ЮЗ  14 км    10/10 270 м  +20.6  +18.9  90  +25  +25  комфорт    975.9         
12:51 22.07 ЮЗ  16 км    10/10 210 м  +21.1  +19.4  90  +26  +26  душно  1005.2  975.9         
13:51 22.07 нст  16 км    10/10 330 м  +21.1  +19.4  90  +26  +26  душно  1005.5  976.6         
13:54 22.07 Ю  16 км    10/10 330 м  +21.1  +19.4  90  +26  +26  душно    976.6         
13:56 22.07 ЮЗ  14 км    10/10 330 м  +21.7  +20.0  90  +27  +27  душно    976.6         
14:06 22.07 ЮЗ  10 км  дымка  10/10 180 м  +21.7  +19.4  87  +27  +27  душно    976.6         
14:38 22.07 ЮЗ  16 км    10/10 450 м  +22.8  +19.4  81  +29  +29  очень
душно 
  976.6         
14:51 22.07 ЮЗ  16 км    10/10 330 м  +23.0  +19.0  78  +29  +29  очень
душно 
1005.7  976.6         
15:30 22.07 З  16 км    10/10 450 м  +22.8  +18.9  79  +29  +29  очень
душно 
  976.6         
15:51 22.07 ЮЗ  8 км  слабый дождь, дымка  10/10 390 м  +21.7  +19.4  87  +27  +27  душно    976.6         
16:04 22.07 ЮЗ  16 км  слабый дождь  10/10 540 м  +23.0  +20.0  83  +30  +30  очень
душно 
  976.6         
16:51 22.07 Ю  10 км  слабый дождь  10/8 480 м
[средняя] 
+23.3  +20.0  82  +30  +31  очень
душно 
  976.6  +20.0  +23.9  0.3   
17:51 22.07 ЮЗ  16 км    8/8 750 м
[средняя] 
+23.9  +18.9  74  +29  +32  душно  1005.5  976.3         
18:07 22.07 ЮЗ  16 км    10/0 2400 м
[средняя] 
+24.4  +18.9  71  +29  +34  душно    976.3         
18:51 22.07 СЗ  16 км    8/0 2400 м
[средняя] 
+26.1  +19.4  67  +32  +40  очень
душно 
1005.0  975.9         
19:51 22.07 ЮВ  16 км    8/5 810 м
[средняя] 
+25.0  +19.0  69  +30  +34  душно  1005.0  975.9         
20:51 22.07 штиль  16 км    10/5 1050 м
[средняя] 
+25.6  +18.9  66  +31  +33  очень
душно 
1005.3  976.3         
21:51 22.07 С  16 км    10/8 1170 м
[средняя] 
+24.0  +21.0  83  +30  +30  очень
душно 
1005.6  976.6         
22:32 22.07 С  16 км  гроза  8/5 570 м
[средняя] 
+23.9  +20.0  79  +29  +30  душно    976.9         
22:44 22.07 З   16 км  гроза  8/8 360 м
[средняя] 
+23.3  +20.0  82  +30  +31  очень
душно 
  977.3         
22:51 22.07 ЮЗ  13 км  гроза, слабый дождь  8/8 360 м
[средняя] 
+22.8  +19.4  81  +29  +29  очень
душно 
1006.8    +22.8  +26.1     
22:55 22.07 ЮЗ  4 км  слабый дождь, дымка  8/8 360 м  +21.7  +19.4  87  +27  +27  душно    977.6         
22:57 22.07 нст  н/о  слабый дождь, туман  8/8 210 м  +21.7  +19.4  87  +27  +27  душно    977.9         
23:00 22.07 С  400 м  гроза с сильным дождем  10/10 360 м  +21.7  +18.9  84  +27  +27  душно    977.9         
23:08 22.07 СВ  800 м  гроза с сильным дождем  10/10 360 м  +21.1  +18.3  84  +25  +25  комфорт    977.9         
23:39 22.07 В  2 км  гроза с сильным дождем, дымка  10/10 90 м  +20.6  +19.4  93  +25  +25  комфорт    978.9         
23:51 22.07 В  2 км  гроза с сильным дождем, дымка  10/10 150 м  +20.6  +19.4  93  +25  +25  комфорт  1007.9  978.6         
00:01 23.07 В  3 км  сильный дождь, дымка  10/10 120 м  +20.0  +19.0  94  +24  +24  комфорт    978.6         
00:07 23.07 СВ  5 км  гроза с сильным дождем, дымка  8/8 1230 м  +20.6  +18.9  90  +25  +25  комфорт    978.2         

 

Местоположение метеостанции Tri-State Airport: широта 38.3650 долгота -82.5550 высота над уровнем моря 252 м.

В архиве по умолчанию представлена погода в Хантингтоне за последние 1-2 суток. Обновление информации о фактической погоде в базе происходит ежечасно! Архивные данные за месяц целиком и за предыдущие месяцы Вы можете получить, выбрав интересующий диапазон дат из раскрывающегося списка и нажав кнопку "Ввод!".

Внимание! Архив погоды МЕТАР в базе сайта в настоящее время начинается c 1 января 2013 г. Нет смысла пытаться выбрать более раннюю дату.

Внимание! Время в таблицах - всемирное. Для получения местного времени необходимо прибавить поправку, которая в Хантингтоне равна -5 ч.

Ветер - указаны скорость ветра в м/с и направление, откуда дует ветер: С - северный, СВ - северо-восточный, В - восточный, ЮВ - юго-восточный, Ю - южный, ЮЗ - юго-западный, З - западный, СЗ - северо-западный.
Видимость - горизонтальная дальность видимости в метрах или километрах. При видимости от 1 до 10 км при отсутствии осадков обычно наблюдается дымка, при ухудшении видимости до 1 км и менее - туман. В сухую погоду видимость может ухудшаться дымом, пылью или мглою.
Атмосферные явления - указаны явления, наблюдавшиеся в указанный момент времени.
Облачность - указаны через наклонную черту верхняя и нижняя облачность в баллах и высота нижней границы облаков в метрах. Внимание: облачность, как и прочие метеорологические величины в США измеряются автоматическими метеостанциями. Указанные значения в баллах носят условный характер и показывают процент времени, в течение которого, в среднем, лазерный луч высотомера отражался от облаков обратно.
T - Температура воздуха - температура, измеренная на высоте 2 м над землей.
Td - Температура точки росы - температура, при понижении до которой содержащийся в воздухе водяной пар достигнет насыщения.
f - Относительная влажность воздуха - влажноcть воздуха, измеренная на высоте 2 м над землей.
Te - Эффективная температура - температура, которую ощущает одетый по сезону человек в тени. Характеристика душности погоды. При расчете учитывается влияние влажности воздуха и скорости ветра на теплоощущения человека.
Tes - Эффективная температура на солнце - температура, которую ощущает человек, с поправкой на солнечный нагрев. Характеристика знойности погоды. Зависит от высоты солнца над горизонтом, облачности и скорости ветра. Ночью, в пасмурную погоду, а также при ветре 12 м/с и более поправка равна нулю.
P - Атмосферное давление - приведенное к уровню моря атмосферное давление.
Po - Атмосферное давление - измеренное на уровне метеостанции атмосферное давление.
Tmin - Минимальная температура - минимум температуры воздуха на высоте 2 м над землей.
Tmax - Максимальная температура - максимум температуры воздуха на высоте 2 м над землей.
R - Количество осадков - Количество выпавших осадков за 3 или 6 часов, мм.
SD - Снежный покров - Высота снежного покрова, см.